Home > Time Zones > World Clock > Weather > Spain > Ibiza > Past weeks

Flag for Spain Weather past 2 weeks in Ibiza, Ibiza, Spain

Now
75 °F

Sunny.


Feels Like: 77 °F
Forecast: 63 / 81 °F
Wind: 8 mph from East

Location: Ibiza / Es Codola

Current Time: Jun 2, 2015 at 6:03:15 PM

Latest Report: Jun 2, 2015 at 5:30 PM


Visibility: 10 mi

Pressure: 30.12 "Hg

Humidity: 61%

Dew point: 61 °F

Location of IbizaLocation

Historic Weather in Ibiza — Graph

°F

Ibiza temperature yesterday

Maximum temperature yesterday: 75 °F (at 1:00 PM)
Minimum temperature yesterday: 63 °F (at 5:00 AM)
Average temperature yesterday: 70 °F

Past Weeks' High & Low Weather Summary

 TemperatureHumidityPressure
High77 °F (May 25, 11:30 AM)100% (May 23, 7:00 AM)30.24 "Hg (May 23, 7:00 AM)
Low52 °F (May 23, 6:00 AM)30% (May 25, 11:30 AM)29.77 "Hg (May 19, 7:00 AM)
Average67 °F71%30.05 "Hg
* Reported May 18 4:00 PM — Jun 2 4:30 PM, Ibiza, Weather by CustomWeather, © 2015

Note: Actual official high and low records may vary slightly from our data, if they occured in-between our weather recording intervals... More about our weather records

Advertising

Ibiza weather history for previous 24 hours

 ConditionsComfort  
Time TempWeatherWind HumidityBarometerVisibility
4:30 PM
Tue, Jun 2
75 °FSunny.9 mph61%30.12 "Hg10 mi
4:00 PM77 °FSunny.9 mph54%30.15 "Hg10 mi
3:30 PM75 °FSunny.9 mph61%30.15 "Hg10 mi
3:00 PM75 °FSunny.8 mph65%30.15 "Hg10 mi
2:30 PM75 °FSunny.8 mph61%30.15 "Hg10 mi
2:00 PM77 °FSunny.8 mph61%30.15 "Hg10 mi
1:30 PM75 °FSunny.7 mph61%30.15 "Hg10 mi
1:00 PM75 °FSunny.8 mph61%30.15 "Hg10 mi
12:30 PM73 °FSunny.7 mph69%30.15 "Hg10 mi
12:00 PM73 °FSunny.7 mph65%30.15 "Hg10 mi
11:30 AM73 °FSunny.6 mph74%30.15 "Hg10 mi
11:00 AM73 °FSunny.7 mph74%30.15 "Hg10 mi
10:30 AM73 °FSunny.6 mph74%30.12 "Hg10 mi
10:00 AM73 °FSunny.6 mph74%30.12 "Hg10 mi
9:30 AM72 °FSunny.5 mph78%30.12 "Hg10 mi
9:00 AM72 °FSunny.3 mph78%30.12 "Hg10 mi
8:30 AM70 °FSunny.1 mph78%30.12 "Hg10 mi
8:00 AM66 °FSunny.No wind83%30.09 "Hg10 mi
7:30 AM63 °FSunny.2 mph88%30.09 "Hg10 mi
7:00 AM63 °FClear.2 mph88%30.09 "Hg10 mi
6:30 AM61 °FClear.2 mph94%30.09 "Hg10 mi
5:30 AM63 °FClear.3 mph88%30.09 "Hg10 mi
5:00 AM61 °FClear.1 mph94%30.09 "Hg10 mi
4:30 AM61 °FClear.1 mph94%30.09 "Hg10 mi
4:00 AM63 °FClear.No wind88%30.09 "Hg10 mi
3:30 AM63 °FClear.5 mph88%30.09 "Hg10 mi
3:00 AM63 °FClear.5 mph88%30.09 "Hg10 mi
2:30 AM63 °FClear.2 mph88%30.09 "Hg10 mi
2:00 AM64 °FClear.1 mph83%30.09 "Hg10 mi
1:30 AM64 °FClear.No wind83%30.09 "Hg10 mi
1:00 AM64 °FClear.No wind83%30.09 "Hg10 mi
12:30 AM66 °FClear.No wind83%30.09 "Hg10 mi
12:00 AM66 °FClear.1 mph78%30.09 "Hg10 mi
11:30 PM
Mon, Jun 1
66 °FClear.2 mph83%30.09 "Hg10 mi
11:00 PM68 °FClear.No wind78%30.09 "Hg10 mi
10:30 PM66 °FClear.1 mph83%30.09 "Hg10 mi
10:00 PM68 °FSunny.2 mph78%30.09 "Hg10 mi
9:30 PM70 °FSunny.1 mph73%30.09 "Hg10 mi
9:00 PM72 °FSunny.3 mph69%30.09 "Hg10 mi
8:30 PM73 °FSunny.5 mph69%30.09 "Hg10 mi
8:00 PM73 °FSunny.7 mph74%30.09 "Hg10 mi
7:30 PM73 °FSunny.7 mph69%30.07 "Hg10 mi
7:00 PM73 °FSunny.8 mph69%30.07 "Hg10 mi
6:30 PM73 °FSunny.9 mph74%30.07 "Hg10 mi
6:00 PM75 °FSunny.8 mph69%30.07 "Hg10 mi
Weather by CustomWeather, © 2015

See weather overviewHow to use our weather pages